Location: Ripley
(48.3812°N, 115.4473°W)
Time: 21:02:50
(UTC+00:00)

RS-15 - Pass Details

Date: 01 July 2022
Orbit: 1881 x 2163 km, 64.8° (Epoch: 19 August)

Event Time Altitude Azimuth Distance (km) Brightness Sun altitude
Rises 10:29:05 0° 314° (NW) 5,690 10.6 -9.7°
Reaches altitude 10° 10:37:50 10° 279° (W) 4,636 9.7 -8.8°
Maximum altitude 10:39:07 10° 272° (W) 4,606 9.6 -8.7°
Drops below altitude 10° 10:40:25 10° 266° (W) 4,615 9.6 -8.5°
Enters shadow 10:45:33 - 242° (WSW) 5,003 9.6 -8.0°
